Home   Weather   Lienz   Past weeks

Flag for Austria Past Weather in Lienz, Tyrol, Austria — Yesterday and Last 2 Weeks

Now
12 °F

Cold.


Feels Like: 12 °F
Forecast: 11 / 33 °F
Wind: 1 mph from West

Location: Lienz

Current Time: Jan 18, 2017 at 9:07:19 am

Latest Report: Jan 18, 2017 at 8:00 am


Visibility: N/A

Pressure: 30.60 "Hg (28.01 "Hg at 677m altitude)

Humidity: 84%

Dew Point: 8 °F

Location of LienzLocation

Past Weather in Lienz — Graph

°F

Lienz Temperature Yesterday

Maximum temperature yesterday: 31 °F (at 5:00 pm)
Minimum temperature yesterday: 12 °F (at 3:00 am)
Average temperature yesterday: 20 °F

High & Low Weather Summary for the Past Weeks

 TemperatureHumidityPressure
High49 °F (Jan 4, 1:00 pm)94% (Jan 13, 7:00 am)30.63 "Hg (Jan 13, 7:00 am)
Low2 °F (Jan 7, 8:00 am)18% (Jan 6, 2:00 pm)29.55 "Hg (Jan 13, 12:00 pm)
Average23 °F60%30.17 "Hg
* Reported Jan 3 7:00 am — Jan 18 7:00 am, Lienz, Weather by CustomWeather, © 2017

Note: Actual official high and low records may vary slightly from our data, if they occured in-between our weather recording intervals... More about our weather records

Advertising

Lienz Weather History for the Previous 24 Hours

Scroll right to see more
 ConditionsComfort  
Time TempWeatherWind HumidityBarometerVisibility
7:00 am
Wed, Jan 18
15 °FPassing clouds.1 mph80%30.57 "Hg16 mi
6:00 am16 °FCold.1 mph77%30.55 "HgN/A
5:00 am16 °FCold.No wind76%30.55 "HgN/A
4:00 am17 °FCold.1 mph72%30.54 "HgN/A
3:00 am16 °FCold.1 mph71%30.55 "HgN/A
2:00 am17 °FCold.1 mph66%30.53 "HgN/A
1:00 am19 °FCold.1 mph62%30.51 "HgN/A
12:00 am19 °FCold.2 mph64%30.50 "HgN/A
11:00 pm
Tue, Jan 17
23 °FCold.3 mph56%30.47 "HgN/A
10:00 pm22 °FCold.2 mph62%30.46 "HgN/A
9:00 pm26 °FChilly.2 mph55%30.42 "HgN/A
8:00 pm28 °FChilly.2 mph53%30.40 "HgN/A
7:00 pm29 °FChilly.3 mph52%30.37 "HgN/A
6:00 pm29 °FChilly.No wind51%30.35 "HgN/A
5:00 pm31 °FChilly.2 mph44%30.32 "HgN/A
4:00 pm30 °FChilly.1 mph45%30.31 "HgN/A
3:00 pm30 °FChilly.1 mph45%30.30 "HgN/A
2:00 pm28 °FChilly.No wind51%30.31 "HgN/A
1:00 pm25 °FOvercast.1 mph58%30.34 "Hg16 mi
12:00 pm23 °FCold.1 mph58%30.35 "HgN/A
11:00 am20 °FCold.1 mph65%30.38 "HgN/A
10:00 am18 °FCold.1 mph70%30.38 "HgN/A
9:00 am16 °FCold.1 mph72%30.38 "HgN/A
Weather by CustomWeather, © 2017

See weather overviewHow to use our weather pages